Temperature
13 13 12 13 13 13 12 12 12 12 12 12 12 12 12 12 11 11 11 11 11 11 11 10 10 10 10 10 10 10 10 10 10 10 10 10 10 10 10 10 10 10 10
12 12 12 12 12 12 12 12 12 12 12 12 11 11 11 11 11 11 11 11 11 11 11 10 10 10 10 10 10 10 10 10 10 10 10 10 10 10 10 10 10 10 9
12 12 12 12 12 12 12 12 11 11 11 11 11 11 11 11 11 11 11 10 10 10 10 10 10 10 10 10 10 10 10 10 10 10 10 10 10 9 9 9 9 9 9
11 11 11 11 11 11 11 11 11 11 11 11 11 11 11 10 10 10 10 10 10 10 10 10 10 10 10 10 10 10 9 9 10 9 9 9 9 9 9 9 9 9 9
11 11 11 11 11 11 11 11 11 11 11 10 10 10 10 10 10 10 10 10 10 10 10 10 10 10 10 10 9 9 9 9 9 9 9 9 9 9 9 9 9 9 8
10 10 10 10 10 10 10 10 10 10 10 10 10 10 10 10 10 10 10 10 10 10 10 9 9 9 9 9 9 9 9 9 9 9 9 8 8 8 8 8 8 8 8
10 10 10 10 10 10 10 9 9 9 9 9 9 9 9 10 9 10 9 9 9 9 9 9 9 9 9 9 9 9 9 8 8 8 8 8 8 8 8 8 8 8 8
9 9 9 9 9 9 9 9 9 9 9 9 8 8 8 8 9 9 9 9 9 9 9 9 9 9 9 8 8 8 8 8 8 8 7 7 7 7 7 8 8 8 8
9 9 9 9 9 8 9 9 8 8 8 8 8 7 7 8 8 8 8 9 8 8 8 8 8 8 8 8 8 8 8 8 8 7 7 7 7 7 7 7 7 7 7
8 8 8 8 8 8 8 8 8 8 8 7 7 7 7 7 7 7 8 8 8 8 8 8 8 8 8 8 8 8 8 7 7 7 7 6 6 6 6 6 7 7 7
8 8 8 8 8 7 8 7 8 7 7 7 7 7 7 7 7 7 7 7 7 8 8 8 8 7 7 7 7 7 7 7 7 7 7 6 6 6 6 6 6 6 6
7 8 7 7 7 7 7 7 7 7 7 7 7 7 6 6 6 6 6 6 7 7 7 7 7 7 7 7 7 7 6 6 6 6 6 6 6 6 6 6 6 6 6
7 7 7 7 7 7 7 7 7 7 6 6 6 6 6 6 6 6 6 6 6 6 6 6 7 6 6 6 6 6 6 6 6 6 6 6 6 6 6 6 5 5 5
7 7 7 6 7 6 6 6 6 6 6 6 6 6 6 6 5 5 5 5 5 5 5 6 6 6 6 6 5 5 6 5 5 5 5 5 5 5 5 5 5 5 5
6 6 6 6 6 6 6 6 6 6 6 6 6 6 5 5 5 5 5 5 4 4 4 5 5 6 5 5 5 5 5 5 5 5 5 5 5 5 5 5 5 5 5
5 5 5 5 5 5 5 5 5 5 5 5 5 5 5 5 5 5 5 5 4 4 4 4 5 5 5 5 5 4 4 4 4 4 4 4 4 4 4 4 4 4 4
5 5 5 5 5 5 5 5 5 5 5 5 5 5 5 5 5 5 4 4 4 4 3 4 4 4 4 4 4 4 4 4 4 4 4 4 4 4 4 4 4 4 4
4 4 4 4 5 5 5 5 5 5 5 5 5 4 4 4 4 4 4 4 4 3 3 3 4 4 4 4 4 3 3 3 3 3 3 3 3 3 3 3 3 3 3
4 4 4 4 4 4 4 4 4 4 4 4 4 4 4 4 4 4 3 3 3 3 3 3 3 3 3 3 3 3 3 3 3 3 3 3 3 3 3 3 3 3 3
3 3 3 3 4 4 4 4 4 4 4 4 4 4 4 3 3 3 3 3 3 3 3 3 2 2 2 2 2 2 2 3 3 3 2 2 2 2 2 2 2 2 2
3 3 3 3 3 3 3 3 3 3 3 3 3 3 3 3 3 3 2 3 2 2 2 2 2 2 2 2 2 1 2 2 2 2 2 2 2 2 2 2 2 2 2
2 2 2 2 3 3 3 3 3 3 3 3 3 3 2 2 2 2 2 2 2 2 2 2 1 1 1 1 1 1 1 1 1 1 1 1 1 1 1 1 1 1 1
2 2 2 2 2 2 2 2 2 2 2 2 2 2 2 2 2 2 2 2 2 1 1 1 1 1 1 1 1 1 0 0 0 0 0 1 1 1 1 1 1 1 1
1 1 1 1 1 2 2 2 2 2 2 2 1 1 1 1 1 1 1 1 1 1 1 1 1 1 1 0 0 0 -0 -0 -0 -0 -0 -0 0 1 0 0 0 0 0
1 1 1 1 1 1 1 1 1 1 1 1 1 1 1 1 1 0 0 1 1 1 0 0 0 0 0 0 -0 -0 -1 -1 -1 -1 -1 -1 -1 -0 -0 -0 -0 -0 -1
0 0 0 0 0 0 0 0 0 0 0 0 0 0 0 -0 -0 -0 0 0 0 -0 -0 -0 -0 -0 -0 -0 -1 -1 -1 -1 -1 -2 -1 -2 -2 -2 -2 -1 -1 -1 -1
Wind_Speed
2 2 1 1 2 1 1 1 1 1 1 1 2 2 2 2 2 2 1 1 2 3 3 2 2 3 2 2 2 2 2 2 2 3 3 4 4 5 4 4 4 4 4
3 2 2 1 1 2 2 2 2 2 1 2 2 2 2 3 2 2 2 2 2 3 3 3 3 3 3 3 3 2 3 3 3 4 4 4 5 6 5 5 5 5 5
3 3 2 2 2 2 2 1 1 1 1 1 2 2 2 2 3 3 3 3 3 3 4 4 3 3 4 4 4 4 4 4 4 4 5 5 6 6 6 6 6 6 6
4 3 3 2 2 2 1 1 1 1 1 1 2 2 2 2 3 4 4 3 3 3 3 4 4 4 4 5 5 5 5 5 5 5 5 6 6 7 6 7 7 7 7
4 3 3 3 2 1 1 1 1 1 1 2 2 2 2 3 3 3 3 4 4 4 3 4 4 5 5 6 6 6 6 6 6 6 6 6 7 8 8 8 8 8 8
4 3 2 2 3 2 2 1 2 1 1 1 1 2 2 3 3 3 4 4 4 5 4 4 4 4 6 7 7 7 7 7 7 7 7 8 8 9 8 9 8 8 8
4 3 3 3 3 3 3 2 1 1 1 1 0 2 3 3 3 3 3 3 4 4 4 4 4 4 4 6 7 8 8 8 8 8 8 8 9 9 9 9 9 9 9
5 4 3 4 4 4 3 3 2 1 1 1 1 0 2 3 2 3 3 4 4 3 3 4 5 5 5 5 5 7 8 8 9 9 9 8 9 9 9 10 9 9 10
5 5 5 4 4 5 5 5 5 4 3 2 2 2 2 3 3 2 3 3 3 3 3 3 5 6 6 6 6 7 8 9 9 9 9 9 9 9 10 10 9 10 10
5 5 5 5 5 5 5 5 5 4 4 4 3 3 3 2 2 2 2 2 3 4 5 4 4 5 6 6 7 7 8 9 10 10 10 10 10 10 10 10 10 10 10
5 5 5 5 5 5 6 6 5 5 5 5 4 2 2 2 2 3 4 3 3 3 4 4 4 5 6 6 6 8 9 9 10 11 10 10 11 11 11 11 11 11 11
4 5 5 5 5 5 6 6 6 7 6 5 4 4 3 3 3 3 4 4 4 3 3 4 4 4 5 5 6 7 8 9 10 10 10 10 10 11 11 11 12 12 11
4 5 5 5 5 6 6 6 6 6 7 6 6 5 4 4 2 2 3 3 4 3 3 3 4 4 4 4 5 7 8 9 9 10 9 9 9 9 10 11 12 12 12
5 5 5 5 6 6 6 6 6 7 6 7 7 6 5 5 4 3 3 2 4 4 3 4 2 4 4 4 5 6 6 9 9 8 7 8 8 9 10 11 12 13 13
5 5 5 6 6 6 6 6 6 7 7 7 7 7 6 5 5 4 4 4 4 5 6 4 3 3 3 4 5 5 5 8 8 7 7 7 8 9 10 12 13 13 13
5 5 6 6 6 6 6 6 5 6 7 7 6 7 7 5 5 5 5 4 4 5 6 4 4 3 3 4 6 4 5 7 7 8 8 8 9 10 11 12 12 13 13
6 6 6 6 7 7 6 6 6 6 7 7 6 7 7 6 5 4 4 4 4 4 6 5 3 3 3 4 3 4 4 4 5 8 9 9 9 10 11 11 12 13 12
6 6 6 7 7 7 7 7 7 7 7 8 7 7 7 5 6 5 4 5 5 4 5 6 4 3 4 4 3 4 4 4 4 7 8 9 10 10 10 11 12 12 12
6 6 6 7 7 7 7 7 7 7 7 7 7 8 7 6 7 5 5 5 4 4 4 4 4 3 3 3 3 4 3 3 5 6 8 9 9 9 10 10 11 10 9
6 6 7 7 7 7 7 6 6 6 6 6 6 6 6 7 7 6 5 5 4 4 3 3 4 3 3 2 2 3 4 3 4 4 6 7 8 9 9 10 9 9 9
6 6 6 6 6 6 6 6 6 6 6 6 5 5 5 6 7 7 6 5 5 4 3 3 4 3 3 2 3 3 4 4 4 3 4 4 5 5 5 7 8 9 9
6 5 6 6 6 6 7 7 6 4 4 5 5 4 5 6 7 8 9 8 7 6 5 4 4 5 5 4 3 3 3 4 4 2 3 5 3 4 4 5 8 8 8
5 5 5 5 6 6 7 7 6 4 3 4 4 4 3 4 4 3 4 5 6 8 8 6 5 5 5 4 3 3 4 4 5 3 3 4 3 4 4 6 9 9 8
5 5 5 5 5 6 6 6 4 3 3 4 4 4 4 3 3 2 1 1 2 3 3 3 3 4 3 3 3 3 3 3 3 2 2 3 3 4 5 5 7 7 7
5 4 4 4 5 5 5 4 3 2 3 3 3 3 4 3 4 2 1 1 1 1 2 2 2 2 2 2 1 0 1 2 3 2 1 1 3 4 4 3 5 7 7
4 4 4 4 4 4 4 3 2 2 2 2 2 2 3 3 3 3 2 2 1 1 0 1 2 2 1 1 1 1 2 2 2 2 1 1 2 2 2 2 3 4 5
Wind_Direction
166 155 157 156 162 157 161 189 181 180 174 180 190 184 188 193 202 213 241 255 255 251 249 248 236 230 225 233 247 257 271 282 292 300 301 297 286 295 278 279 285 291 298
172 174 183 186 194 196 198 204 215 204 206 201 209 211 209 203 203 214 236 248 262 259 256 255 254 237 236 244 248 258 266 265 277 281 290 299 289 292 275 272 275 281 286
182 184 192 203 220 213 195 190 214 191 205 219 236 224 216 214 212 216 225 228 240 254 255 256 260 251 240 243 250 256 260 262 269 281 288 291 292 295 283 275 274 276 281
192 186 197 213 220 191 169 181 201 213 220 227 245 247 231 223 222 217 217 218 221 234 250 256 263 270 256 245 251 257 258 262 267 275 285 290 290 288 294 285 279 276 276
209 192 204 207 197 191 195 206 212 218 227 243 247 257 254 242 228 217 217 215 215 221 232 254 259 266 266 260 256 259 262 264 268 274 280 287 292 292 288 291 284 280 277
221 208 205 200 184 186 204 213 224 240 213 218 274 281 264 255 236 222 223 217 219 223 227 237 246 257 259 260 261 262 264 264 268 274 281 283 287 292 290 297 289 285 283
220 213 224 201 191 195 201 203 225 224 243 166 20 320 295 252 235 235 226 221 225 225 221 224 231 242 254 262 261 262 266 266 269 272 276 282 283 284 285 293 285 287 285
223 219 218 221 209 202 199 192 188 209 243 186 165 275 303 304 272 249 227 225 229 224 228 234 230 235 239 245 260 265 266 267 271 274 276 279 281 283 284 290 283 288 289
226 221 221 221 218 208 209 205 196 195 229 238 208 185 205 243 294 277 250 232 232 237 241 236 235 237 238 238 246 260 266 267 270 274 276 276 278 280 285 293 288 290 292
233 224 222 218 218 217 216 213 205 208 204 229 242 231 231 222 232 278 284 260 248 242 241 247 242 238 236 237 244 254 260 269 273 273 275 278 280 282 286 290 294 291 291
245 233 227 220 219 222 219 215 213 212 212 221 223 230 242 257 234 233 266 280 277 253 243 242 241 239 236 236 242 252 262 270 274 272 273 276 278 280 283 288 292 291 290
248 236 233 225 225 226 225 222 215 214 218 221 226 219 214 211 222 226 248 268 277 276 266 252 242 236 234 234 248 264 271 271 272 271 271 274 277 280 284 287 289 291 288
254 242 236 228 229 231 230 224 219 219 218 219 224 228 223 226 221 228 242 270 280 282 275 264 243 233 240 233 244 269 275 273 274 270 272 274 280 286 291 292 291 290 286
251 247 239 237 237 235 233 224 224 223 221 223 230 228 228 226 216 218 219 239 283 282 268 259 264 233 233 233 251 272 273 276 279 280 278 279 282 286 289 290 291 288 287
260 252 245 239 238 235 232 227 229 226 223 225 229 227 228 226 219 221 217 214 228 265 268 248 248 248 234 238 253 255 261 274 283 282 281 281 284 284 286 286 286 285 284
262 259 254 243 240 237 233 229 233 229 226 229 228 226 230 226 219 217 219 224 229 243 263 266 261 272 257 259 264 263 259 271 277 279 278 283 283 283 285 284 287 285 281
260 259 256 249 244 240 232 229 232 227 228 233 232 229 231 226 220 221 219 222 229 236 259 280 280 274 259 258 273 265 267 262 268 275 280 282 281 281 283 285 289 285 280
260 255 254 253 248 244 236 231 234 230 229 233 235 234 236 232 226 224 224 230 231 232 245 267 279 274 268 254 263 271 277 275 269 273 278 281 281 281 283 285 289 285 281
264 260 254 255 254 246 240 235 231 231 231 233 232 232 233 227 232 231 230 233 234 239 240 255 274 277 284 280 284 286 283 284 283 280 280 278 280 282 282 286 289 287 283
263 262 261 259 254 249 243 240 236 235 233 235 236 235 232 229 231 227 233 232 230 233 234 244 266 275 283 287 276 282 294 289 289 296 288 284 287 285 282 285 290 291 287
266 265 268 264 254 247 244 242 240 241 237 237 238 238 240 243 241 237 240 229 220 225 230 242 257 274 271 276 272 282 287 298 292 279 291 289 292 289 289 289 294 295 288
270 268 267 264 259 257 261 255 256 244 241 239 243 244 246 246 250 250 247 240 230 224 228 235 249 255 263 271 278 276 285 301 293 275 291 288 282 279 291 300 300 300 293
272 274 271 266 261 266 268 261 262 255 238 235 236 236 253 254 254 249 254 251 243 241 236 235 240 247 251 248 245 262 275 285 282 283 294 281 284 280 293 299 300 304 301
279 279 281 275 269 270 270 263 264 253 234 229 225 226 234 239 243 245 237 243 259 261 255 248 234 246 248 233 231 243 262 290 300 298 301 282 300 294 303 303 299 307 314
292 290 285 280 276 275 271 265 274 247 248 240 230 228 228 223 227 224 189 211 280 322 334 297 280 267 263 267 243 201 263 301 309 297 324 300 299 303 303 299 302 313 318
286 294 296 289 281 270 270 267 273 241 251 248 247 232 227 228 227 213 188 181 216 270 301 7 16 18 19 343 265 219 213 252 303 289 303 317 297 324 320 311 320 324 326
Height
1517 1517 1518 1519 1520 1521 1521 1522 1522 1522 1523 1523 1523 1524 1524 1524 1524 1525 1525 1525 1525 1525 1525 1525 1525 1525 1524 1524 1524 1523 1523 1523 1523 1522 1522 1522 1521 1521 1521 1521 1520 1520 1519
1514 1514 1515 1516 1517 1518 1518 1519 1519 1520 1520 1520 1521 1521 1521 1521 1522 1522 1522 1522 1522 1523 1523 1522 1522 1522 1522 1521 1521 1521 1520 1520 1520 1519 1519 1519 1518 1518 1518 1517 1517 1517 1516
1511 1512 1512 1513 1514 1515 1515 1516 1517 1517 1517 1517 1518 1518 1518 1518 1519 1519 1519 1519 1519 1519 1520 1520 1520 1519 1519 1519 1518 1518 1517 1517 1517 1516 1516 1515 1515 1514 1514 1514 1514 1513 1513
1507 1508 1509 1510 1511 1511 1512 1513 1513 1514 1514 1514 1514 1514 1514 1515 1515 1515 1516 1516 1516 1516 1516 1516 1516 1516 1516 1515 1515 1515 1514 1514 1513 1513 1512 1512 1511 1511 1510 1510 1510 1509 1509
1503 1504 1505 1506 1507 1508 1508 1509 1510 1510 1510 1511 1511 1511 1511 1511 1511 1512 1512 1512 1513 1513 1513 1513 1513 1513 1512 1512 1512 1511 1511 1510 1510 1509 1509 1508 1507 1507 1507 1506 1506 1505 1505
1499 1500 1501 1502 1503 1504 1504 1505 1506 1506 1507 1507 1507 1507 1507 1507 1507 1508 1508 1508 1509 1509 1509 1509 1509 1509 1509 1508 1508 1507 1507 1507 1506 1505 1505 1504 1504 1503 1502 1502 1502 1501 1501
1495 1496 1497 1497 1498 1499 1500 1501 1501 1502 1503 1503 1503 1502 1502 1503 1503 1503 1504 1504 1504 1504 1505 1504 1504 1504 1504 1504 1504 1503 1503 1502 1502 1501 1500 1500 1499 1499 1498 1498 1497 1497 1496
1491 1491 1492 1492 1493 1494 1495 1496 1497 1497 1498 1499 1500 1499 1498 1498 1498 1498 1499 1499 1499 1500 1500 1500 1499 1499 1499 1499 1499 1499 1498 1498 1497 1496 1496 1495 1494 1494 1494 1493 1493 1492 1492
1486 1486 1487 1488 1488 1489 1490 1490 1492 1492 1493 1494 1495 1496 1495 1493 1493 1493 1493 1494 1494 1494 1495 1495 1495 1495 1495 1494 1494 1494 1493 1493 1492 1492 1491 1490 1490 1489 1489 1488 1488 1488 1487
1481 1481 1482 1482 1483 1484 1484 1485 1486 1487 1488 1489 1490 1491 1492 1491 1490 1488 1488 1489 1489 1489 1490 1490 1490 1490 1490 1489 1489 1488 1488 1487 1487 1486 1486 1485 1485 1484 1484 1483 1483 1482 1482
1476 1476 1476 1477 1477 1478 1479 1479 1480 1482 1483 1483 1484 1485 1485 1486 1486 1485 1482 1482 1483 1483 1484 1484 1484 1484 1484 1484 1483 1483 1483 1482 1481 1481 1480 1480 1479 1479 1478 1478 1477 1477 1476
1469 1470 1471 1471 1471 1472 1473 1473 1474 1475 1477 1478 1478 1478 1479 1479 1479 1480 1478 1477 1477 1477 1478 1478 1478 1479 1479 1478 1478 1478 1477 1477 1476 1475 1475 1474 1474 1473 1472 1472 1471 1471 1471
1463 1463 1464 1465 1465 1466 1467 1468 1468 1469 1470 1471 1471 1472 1473 1473 1475 1475 1475 1473 1472 1471 1472 1472 1472 1473 1473 1473 1472 1472 1471 1471 1470 1470 1469 1468 1468 1467 1466 1466 1465 1465 1464
1458 1458 1458 1459 1460 1461 1461 1461 1462 1462 1463 1464 1465 1466 1467 1467 1468 1469 1470 1470 1468 1466 1466 1466 1466 1467 1467 1467 1467 1466 1465 1465 1464 1464 1463 1462 1462 1461 1460 1460 1459 1459 1458
1453 1453 1453 1453 1454 1455 1455 1455 1455 1456 1457 1458 1459 1459 1460 1460 1462 1463 1464 1465 1465 1462 1460 1460 1461 1461 1461 1461 1461 1460 1459 1459 1458 1458 1457 1457 1456 1455 1454 1454 1453 1452 1451
1448 1447 1447 1447 1448 1448 1449 1449 1449 1450 1451 1451 1452 1453 1453 1454 1455 1456 1458 1459 1459 1459 1456 1454 1455 1455 1455 1455 1455 1454 1454 1453 1452 1451 1451 1450 1449 1449 1448 1447 1446 1445 1445
1442 1442 1441 1441 1441 1442 1442 1443 1443 1443 1444 1445 1446 1446 1447 1448 1448 1450 1451 1452 1452 1453 1451 1448 1450 1450 1450 1449 1448 1448 1448 1447 1446 1445 1445 1444 1443 1443 1442 1440 1439 1439 1438
1437 1436 1436 1435 1435 1435 1436 1436 1436 1437 1437 1438 1439 1440 1440 1441 1442 1443 1444 1445 1446 1446 1446 1444 1443 1444 1443 1444 1443 1442 1442 1441 1440 1439 1438 1438 1437 1436 1435 1434 1433 1432 1432
1431 1430 1430 1429 1429 1429 1429 1430 1430 1430 1431 1432 1433 1433 1434 1435 1436 1437 1438 1439 1439 1440 1440 1439 1438 1438 1437 1438 1437 1436 1436 1435 1434 1433 1432 1432 1430 1430 1429 1428 1427 1426 1425
1425 1424 1424 1424 1423 1423 1423 1424 1424 1424 1424 1425 1426 1427 1428 1429 1429 1430 1432 1432 1433 1433 1433 1433 1432 1432 1432 1432 1432 1430 1429 1429 1428 1427 1426 1426 1424 1424 1423 1422 1421 1420 1420
1420 1419 1419 1418 1418 1417 1417 1417 1417 1418 1418 1419 1420 1421 1422 1423 1424 1425 1426 1426 1427 1427 1427 1427 1426 1426 1426 1426 1426 1425 1424 1423 1422 1422 1420 1419 1418 1418 1417 1416 1415 1414 1414
1415 1414 1413 1412 1412 1411 1411 1412 1412 1412 1412 1412 1413 1414 1416 1417 1418 1419 1420 1421 1421 1421 1421 1421 1420 1420 1420 1420 1421 1421 1420 1418 1416 1416 1415 1413 1413 1412 1412 1410 1410 1409 1409
1409 1408 1407 1407 1406 1406 1406 1406 1407 1407 1407 1407 1408 1408 1410 1411 1413 1413 1414 1414 1415 1415 1417 1417 1415 1415 1416 1416 1416 1415 1415 1413 1412 1411 1410 1408 1408 1407 1407 1406 1405 1404 1403
1404 1403 1402 1401 1401 1400 1401 1401 1402 1402 1402 1401 1402 1404 1405 1406 1407 1408 1408 1408 1408 1409 1410 1411 1411 1411 1412 1412 1412 1412 1411 1409 1408 1407 1406 1404 1403 1402 1402 1401 1400 1399 1399
1400 1399 1397 1397 1396 1396 1396 1397 1397 1397 1397 1396 1397 1399 1400 1400 1401 1403 1403 1403 1403 1404 1405 1406 1407 1407 1407 1407 1408 1407 1406 1405 1402 1402 1402 1401 1399 1397 1397 1396 1396 1395 1394
1396 1395 1394 1393 1392 1392 1392 1393 1393 1393 1392 1392 1393 1394 1395 1396 1397 1398 1398 1398 1398 1399 1401 1401 1402 1403 1403 1403 1404 1404 1403 1401 1400 1399 1398 1398 1396 1395 1393 1392 1392 1392 1390